Year,Month,Day,Hour,Minute,Value (Times are PST for temperature in C)
2013,10,11,00,00,4.70
2013,10,11,00,01,4.70
2013,10,11,00,02,4.70
2013,10,11,00,03,4.60
2013,10,11,00,04,4.60
2013,10,11,00,05,4.60
2013,10,11,00,06,4.60
2013,10,11,00,07,4.60
2013,10,11,00,08,4.50
2013,10,11,00,09,4.50
2013,10,11,00,10,4.50
2013,10,11,00,11,4.50
2013,10,11,00,12,4.50
2013,10,11,00,13,4.50
2013,10,11,00,14,4.60
2013,10,11,00,15,4.60
2013,10,11,00,16,4.60
2013,10,11,00,17,4.60
2013,10,11,00,18,4.60
2013,10,11,00,19,4.60
2013,10,11,00,20,4.70
2013,10,11,00,21,4.70
2013,10,11,00,22,4.70
2013,10,11,00,23,4.70
2013,10,11,00,24,4.70
2013,10,11,00,25,4.70
2013,10,11,00,26,4.70
2013,10,11,00,27,4.70
2013,10,11,00,28,4.70
2013,10,11,00,29,4.70
2013,10,11,00,30,4.70
2013,10,11,00,31,4.70
2013,10,11,00,32,4.70
2013,10,11,00,33,4.70
2013,10,11,00,34,4.70
2013,10,11,00,35,4.70
2013,10,11,00,36,4.70
2013,10,11,00,37,4.60
2013,10,11,00,38,4.60
2013,10,11,00,39,4.60
2013,10,11,00,40,4.60
2013,10,11,00,41,4.60
2013,10,11,00,42,4.60
2013,10,11,00,43,4.60
2013,10,11,00,44,4.60
2013,10,11,00,45,4.60
2013,10,11,00,46,4.60
2013,10,11,00,47,4.60
2013,10,11,00,48,4.60
2013,10,11,00,49,4.60
2013,10,11,00,50,4.50
2013,10,11,00,51,4.50
2013,10,11,00,52,4.50
2013,10,11,00,53,4.50
2013,10,11,00,54,4.50
2013,10,11,00,55,4.50
2013,10,11,00,56,4.50
2013,10,11,00,57,4.50
2013,10,11,00,58,4.50
2013,10,11,00,59,4.50
2013,10,11,01,00,4.50
2013,10,11,01,01,4.50
2013,10,11,01,02,4.50
2013,10,11,01,03,4.50
2013,10,11,01,04,4.50
2013,10,11,01,05,4.50
2013,10,11,01,06,4.50
2013,10,11,01,07,4.40
2013,10,11,01,08,4.40
2013,10,11,01,09,4.40
2013,10,11,01,10,4.40
2013,10,11,01,11,4.40
2013,10,11,01,12,4.40
2013,10,11,01,13,4.30
2013,10,11,01,14,4.30
2013,10,11,01,15,4.30
2013,10,11,01,16,4.30
2013,10,11,01,17,4.30
2013,10,11,01,18,4.30
2013,10,11,01,19,4.40
2013,10,11,01,20,4.40
2013,10,11,01,21,4.40
2013,10,11,01,22,4.40
2013,10,11,01,23,4.40
2013,10,11,01,24,4.40
2013,10,11,01,25,4.40
2013,10,11,01,26,4.40
2013,10,11,01,27,4.40
2013,10,11,01,28,4.40
2013,10,11,01,29,4.30
2013,10,11,01,30,4.30
2013,10,11,01,31,4.30
2013,10,11,01,32,4.30
2013,10,11,01,33,4.30
2013,10,11,01,34,4.30
2013,10,11,01,35,4.30
2013,10,11,01,36,4.30
2013,10,11,01,37,4.30
2013,10,11,01,38,4.20
2013,10,11,01,39,4.20
2013,10,11,01,40,4.20
2013,10,11,01,41,4.20
2013,10,11,01,42,4.20
2013,10,11,01,43,4.20
2013,10,11,01,44,4.20
2013,10,11,01,45,4.20
2013,10,11,01,46,4.20
2013,10,11,01,47,4.20
2013,10,11,01,48,4.20
2013,10,11,01,49,4.20
2013,10,11,01,50,4.30
2013,10,11,01,51,4.30
2013,10,11,01,52,4.30
2013,10,11,01,53,4.30
2013,10,11,01,54,4.30
2013,10,11,01,55,4.30
2013,10,11,01,56,4.30
2013,10,11,01,57,4.40
2013,10,11,01,58,4.40
2013,10,11,01,59,4.40
2013,10,11,02,00,4.40
2013,10,11,02,01,4.40
2013,10,11,02,02,4.50
2013,10,11,02,03,4.50
2013,10,11,02,04,4.50
2013,10,11,02,05,4.50
2013,10,11,02,06,4.50
2013,10,11,02,07,4.50
2013,10,11,02,08,4.50
2013,10,11,02,09,4.50
2013,10,11,02,10,4.50
2013,10,11,02,11,4.50
2013,10,11,02,12,4.50
2013,10,11,02,13,4.50
2013,10,11,02,14,4.50
2013,10,11,02,15,4.50
2013,10,11,02,16,4.50
2013,10,11,02,17,4.50
2013,10,11,02,18,4.50
2013,10,11,02,19,4.50
2013,10,11,02,20,4.50
2013,10,11,02,21,4.50
2013,10,11,02,22,4.50
2013,10,11,02,23,4.50
2013,10,11,02,24,4.50
2013,10,11,02,25,4.50
2013,10,11,02,26,4.50
2013,10,11,02,27,4.50
2013,10,11,02,28,4.50
2013,10,11,02,29,4.50
2013,10,11,02,30,4.50
2013,10,11,02,31,4.50
2013,10,11,02,32,4.50
2013,10,11,02,33,4.50
2013,10,11,02,34,4.50
2013,10,11,02,35,4.50
2013,10,11,02,36,4.50
2013,10,11,02,37,4.50
2013,10,11,02,38,4.50
2013,10,11,02,39,4.50
2013,10,11,02,40,4.50
2013,10,11,02,41,4.50
2013,10,11,02,42,4.40
2013,10,11,02,43,4.40
2013,10,11,02,44,4.40
2013,10,11,02,45,4.40
2013,10,11,02,46,4.40
2013,10,11,02,47,4.40
2013,10,11,02,48,4.40
2013,10,11,02,49,4.40
2013,10,11,02,50,4.40
2013,10,11,02,51,4.40
2013,10,11,02,52,4.40
2013,10,11,02,53,4.40
2013,10,11,02,54,4.50
2013,10,11,02,55,4.50
2013,10,11,02,56,4.50
2013,10,11,02,57,4.50
2013,10,11,02,58,4.50
2013,10,11,02,59,4.50
2013,10,11,03,00,4.50
2013,10,11,03,01,4.60
2013,10,11,03,02,4.60
2013,10,11,03,03,4.60
2013,10,11,03,04,4.60
2013,10,11,03,05,4.60
2013,10,11,03,06,4.60
2013,10,11,03,07,4.60
2013,10,11,03,08,4.60
2013,10,11,03,09,4.60
2013,10,11,03,10,4.60
2013,10,11,03,11,4.60
2013,10,11,03,12,4.60
2013,10,11,03,13,4.60
2013,10,11,03,14,4.60
2013,10,11,03,15,4.60
2013,10,11,03,16,4.60
2013,10,11,03,17,4.60
2013,10,11,03,18,4.60
2013,10,11,03,19,4.60
2013,10,11,03,20,4.60
2013,10,11,03,21,4.60
2013,10,11,03,22,4.60
2013,10,11,03,23,4.60
2013,10,11,03,24,4.60
2013,10,11,03,25,4.60
2013,10,11,03,26,4.60
2013,10,11,03,27,4.60
2013,10,11,03,28,4.60
2013,10,11,03,29,4.60
2013,10,11,03,30,4.60
2013,10,11,03,31,4.60
2013,10,11,03,32,4.60
2013,10,11,03,33,4.60
2013,10,11,03,34,4.60
2013,10,11,03,35,4.60
2013,10,11,03,36,4.60
2013,10,11,03,37,4.60
2013,10,11,03,38,4.50
2013,10,11,03,39,4.50
2013,10,11,03,40,4.50
2013,10,11,03,41,4.50
2013,10,11,03,42,4.50
2013,10,11,03,43,4.50
2013,10,11,03,44,4.50
2013,10,11,03,45,4.50
2013,10,11,03,46,4.50
2013,10,11,03,47,4.50
2013,10,11,03,48,4.50
2013,10,11,03,49,4.50
2013,10,11,03,50,4.50
2013,10,11,03,51,4.50
2013,10,11,03,52,4.50
2013,10,11,03,53,4.50
2013,10,11,03,54,4.50
2013,10,11,03,55,4.50
2013,10,11,03,56,4.50
2013,10,11,03,57,4.50
2013,10,11,03,58,4.50
2013,10,11,03,59,4.50
2013,10,11,04,00,4.50
2013,10,11,04,01,4.50
2013,10,11,04,02,4.50
2013,10,11,04,03,4.50
2013,10,11,04,04,4.50
2013,10,11,04,05,4.50
2013,10,11,04,06,4.40
2013,10,11,04,07,4.40
2013,10,11,04,08,4.40
2013,10,11,04,09,4.40
2013,10,11,04,10,4.40
2013,10,11,04,11,4.40
2013,10,11,04,12,4.40
2013,10,11,04,13,4.40
2013,10,11,04,14,4.40
2013,10,11,04,15,4.40
2013,10,11,04,16,4.40
2013,10,11,04,17,4.40
2013,10,11,04,18,4.40
2013,10,11,04,19,4.40
2013,10,11,04,20,4.50
2013,10,11,04,21,4.50
2013,10,11,04,22,4.50
2013,10,11,04,23,4.50
2013,10,11,04,24,4.60
2013,10,11,04,25,4.60
2013,10,11,04,26,4.60
2013,10,11,04,27,4.60
2013,10,11,04,28,4.60
2013,10,11,04,29,4.60
2013,10,11,04,30,4.70
2013,10,11,04,31,4.70
2013,10,11,04,32,4.70
2013,10,11,04,33,4.70
2013,10,11,04,34,4.80
2013,10,11,04,35,4.80
2013,10,11,04,36,4.80
2013,10,11,04,37,4.90
2013,10,11,04,38,4.90
2013,10,11,04,39,4.90
2013,10,11,04,40,4.90
2013,10,11,04,41,4.90
2013,10,11,04,42,5.00
2013,10,11,04,43,5.10
2013,10,11,04,44,5.10
2013,10,11,04,45,5.10
2013,10,11,04,46,5.10
2013,10,11,04,47,5.20
2013,10,11,04,48,5.20
2013,10,11,04,49,5.30
2013,10,11,04,50,5.30
2013,10,11,04,51,5.30
2013,10,11,04,52,5.30
2013,10,11,04,53,5.30
2013,10,11,04,54,5.30
2013,10,11,04,55,5.20
2013,10,11,04,56,5.20
2013,10,11,04,57,5.20
2013,10,11,04,58,5.10
2013,10,11,04,59,5.10
2013,10,11,05,00,5.10
2013,10,11,05,01,5.10
2013,10,11,05,02,5.10
2013,10,11,05,03,5.00
2013,10,11,05,04,4.90
2013,10,11,05,05,4.90
2013,10,11,05,06,4.90
2013,10,11,05,07,4.90
2013,10,11,05,08,4.90
2013,10,11,05,09,4.90
2013,10,11,05,10,4.90
2013,10,11,05,11,4.90
2013,10,11,05,12,4.90
2013,10,11,05,13,4.90
2013,10,11,05,14,4.90
2013,10,11,05,15,4.90
2013,10,11,05,16,4.90
2013,10,11,05,17,4.90
2013,10,11,05,18,4.90
2013,10,11,05,19,4.90
2013,10,11,05,20,4.90
2013,10,11,05,21,4.90
2013,10,11,05,22,4.90
2013,10,11,05,23,4.90
2013,10,11,05,24,4.90
2013,10,11,05,25,4.90
2013,10,11,05,26,4.90
2013,10,11,05,27,4.90
2013,10,11,05,28,4.90
2013,10,11,05,29,4.90
2013,10,11,05,30,4.90
2013,10,11,05,31,4.90
2013,10,11,05,32,4.90
2013,10,11,05,33,4.90
2013,10,11,05,34,5.00
2013,10,11,05,35,5.10
2013,10,11,05,36,5.10
2013,10,11,05,37,5.10
2013,10,11,05,38,5.10
2013,10,11,05,39,5.10
2013,10,11,05,40,5.10
2013,10,11,05,41,5.10
2013,10,11,05,42,5.10
2013,10,11,05,43,5.10
2013,10,11,05,44,5.10
2013,10,11,05,45,5.10
2013,10,11,05,46,5.10
2013,10,11,05,47,5.10
2013,10,11,05,48,5.10
2013,10,11,05,49,5.10
2013,10,11,05,50,5.10
2013,10,11,05,51,5.10
2013,10,11,05,52,5.10
2013,10,11,05,53,5.10
2013,10,11,05,54,5.10
2013,10,11,05,55,5.10
2013,10,11,05,56,5.10
2013,10,11,05,57,5.10
2013,10,11,05,58,5.10
2013,10,11,05,59,5.10
2013,10,11,06,00,5.10
2013,10,11,06,01,5.10
2013,10,11,06,02,5.10
2013,10,11,06,03,5.10
2013,10,11,06,04,5.20
2013,10,11,06,05,5.20
2013,10,11,06,06,5.20
2013,10,11,06,07,5.30
2013,10,11,06,08,5.30
2013,10,11,06,09,5.30
2013,10,11,06,10,5.30
2013,10,11,06,11,5.30
2013,10,11,06,12,5.20
2013,10,11,06,13,5.20
2013,10,11,06,14,5.20
2013,10,11,06,15,5.20
2013,10,11,06,16,5.20
2013,10,11,06,17,5.20
2013,10,11,06,18,5.20
2013,10,11,06,19,5.20
2013,10,11,06,20,5.20
2013,10,11,06,21,5.20
2013,10,11,06,22,5.20
2013,10,11,06,23,5.20
2013,10,11,06,24,5.20
2013,10,11,06,25,5.30
2013,10,11,06,26,5.30
2013,10,11,06,27,5.30
2013,10,11,06,28,5.30
2013,10,11,06,29,5.30
2013,10,11,06,30,5.30
2013,10,11,06,31,5.30
2013,10,11,06,32,5.30
2013,10,11,06,33,5.30
2013,10,11,06,34,5.30
2013,10,11,06,35,5.30
2013,10,11,06,36,5.30
2013,10,11,06,37,5.30
2013,10,11,06,38,5.30
2013,10,11,06,39,5.30
2013,10,11,06,40,5.30
2013,10,11,06,41,5.30
2013,10,11,06,42,5.30
2013,10,11,06,43,5.20
2013,10,11,06,44,5.20
2013,10,11,06,45,5.20
2013,10,11,06,46,5.20
2013,10,11,06,47,5.20
2013,10,11,06,48,5.30
2013,10,11,06,49,5.30
2013,10,11,06,50,5.30
2013,10,11,06,51,5.30
2013,10,11,06,52,5.30
2013,10,11,06,53,5.30
2013,10,11,06,54,5.30
2013,10,11,06,55,5.30
2013,10,11,06,56,5.30
2013,10,11,06,57,5.30
2013,10,11,06,58,5.30
2013,10,11,06,59,5.30
2013,10,11,07,00,5.40
2013,10,11,07,01,5.40
2013,10,11,07,02,5.40
2013,10,11,07,03,5.40
2013,10,11,07,04,5.40
2013,10,11,07,05,5.40
2013,10,11,07,06,5.40
2013,10,11,07,07,5.40
2013,10,11,07,08,5.40
2013,10,11,07,09,5.40
2013,10,11,07,10,5.40
2013,10,11,07,11,5.40
2013,10,11,07,12,5.40
2013,10,11,07,13,5.40
2013,10,11,07,14,5.40
2013,10,11,07,15,5.50
2013,10,11,07,16,5.50
2013,10,11,07,17,5.50
2013,10,11,07,18,5.50
2013,10,11,07,19,5.50
2013,10,11,07,20,5.50
2013,10,11,07,21,5.50
2013,10,11,07,22,5.40
2013,10,11,07,23,5.40
2013,10,11,07,24,5.40
2013,10,11,07,25,5.40
2013,10,11,07,26,5.30
2013,10,11,07,27,5.30
2013,10,11,07,28,5.30
2013,10,11,07,29,5.30
2013,10,11,07,30,5.30
2013,10,11,07,31,5.30
2013,10,11,07,32,5.30
2013,10,11,07,33,5.30
2013,10,11,07,34,5.30
2013,10,11,07,35,5.30
2013,10,11,07,36,5.30
2013,10,11,07,37,5.30
2013,10,11,07,38,5.30
2013,10,11,07,39,5.30
2013,10,11,07,40,5.30
2013,10,11,07,41,5.30
2013,10,11,07,42,5.30
2013,10,11,07,43,5.30
2013,10,11,07,44,5.30
2013,10,11,07,45,5.30
2013,10,11,07,46,5.40
2013,10,11,07,47,5.40
2013,10,11,07,48,5.40
2013,10,11,07,49,5.40
2013,10,11,07,50,5.40
2013,10,11,07,51,5.40
2013,10,11,07,52,5.40
2013,10,11,07,53,5.40
2013,10,11,07,54,5.40
2013,10,11,07,55,5.40
2013,10,11,07,56,5.50
2013,10,11,07,57,5.50
2013,10,11,07,58,5.50
2013,10,11,07,59,5.50
2013,10,11,08,00,5.60
2013,10,11,08,01,5.60
2013,10,11,08,02,5.60
2013,10,11,08,03,5.70
2013,10,11,08,04,5.70
2013,10,11,08,05,5.70
2013,10,11,08,06,5.70
2013,10,11,08,07,5.70
2013,10,11,08,08,5.80
2013,10,11,08,09,5.80
2013,10,11,08,10,5.90
2013,10,11,08,11,5.90
2013,10,11,08,12,5.90
2013,10,11,08,13,5.90
2013,10,11,08,14,5.90
2013,10,11,08,15,6.00
2013,10,11,08,16,6.00
2013,10,11,08,17,6.00
2013,10,11,08,18,6.00
2013,10,11,08,19,6.00
2013,10,11,08,20,6.00
2013,10,11,08,21,6.00
2013,10,11,08,22,6.10
2013,10,11,08,23,6.10
2013,10,11,08,24,6.10
2013,10,11,08,25,6.10
2013,10,11,08,26,6.10
2013,10,11,08,27,6.20
2013,10,11,08,28,6.20
2013,10,11,08,29,6.20
2013,10,11,08,30,6.20
2013,10,11,08,31,6.20
2013,10,11,08,32,6.20
2013,10,11,08,33,6.20
2013,10,11,08,34,6.20
2013,10,11,08,35,6.20
2013,10,11,08,36,6.30
2013,10,11,08,37,6.30
2013,10,11,08,38,6.30
2013,10,11,08,39,6.40
2013,10,11,08,40,6.40
2013,10,11,08,41,6.40
2013,10,11,08,42,6.40
2013,10,11,08,43,6.40
2013,10,11,08,44,6.40
2013,10,11,08,45,6.50
2013,10,11,08,46,6.60
2013,10,11,08,47,6.60
2013,10,11,08,48,6.60
2013,10,11,08,49,6.60
2013,10,11,08,50,6.60
2013,10,11,08,51,6.60
2013,10,11,08,52,6.70
2013,10,11,08,53,6.70
2013,10,11,08,54,6.80
2013,10,11,08,55,6.80
2013,10,11,08,56,6.80
2013,10,11,08,57,6.80
2013,10,11,08,58,6.90
2013,10,11,08,59,6.90
2013,10,11,09,00,6.90
2013,10,11,09,01,7.00
2013,10,11,09,02,7.00
2013,10,11,09,03,7.00
2013,10,11,09,04,7.00
2013,10,11,09,05,7.10
2013,10,11,09,06,7.10
2013,10,11,09,07,7.10
2013,10,11,09,08,7.20
2013,10,11,09,09,7.20
2013,10,11,09,10,7.20
2013,10,11,09,11,7.30
2013,10,11,09,12,7.30
2013,10,11,09,13,7.30
2013,10,11,09,14,7.30
2013,10,11,09,15,7.40
2013,10,11,09,16,7.50
2013,10,11,09,17,7.60
2013,10,11,09,18,7.60
2013,10,11,09,19,7.70
2013,10,11,09,20,7.80
2013,10,11,09,21,7.80
2013,10,11,09,22,7.80
2013,10,11,09,23,7.90
2013,10,11,09,24,8.00
2013,10,11,09,25,8.00
2013,10,11,09,26,8.10
2013,10,11,09,27,8.10
2013,10,11,09,28,8.20
2013,10,11,09,29,8.20
2013,10,11,09,30,8.20
2013,10,11,09,31,8.20
2013,10,11,09,32,8.20
2013,10,11,09,33,8.20
2013,10,11,09,34,8.30
2013,10,11,09,35,8.30
2013,10,11,09,36,8.30
2013,10,11,09,37,8.40
2013,10,11,09,38,8.40
2013,10,11,09,39,8.40
2013,10,11,09,40,8.50
2013,10,11,09,41,8.50
2013,10,11,09,42,8.50
2013,10,11,09,43,8.50
2013,10,11,09,44,8.60
2013,10,11,09,45,8.60
2013,10,11,09,46,8.60
2013,10,11,09,47,8.70
2013,10,11,09,48,8.70
2013,10,11,09,49,8.80
2013,10,11,09,50,8.80
2013,10,11,09,51,8.90
2013,10,11,09,52,8.80
2013,10,11,09,53,8.90
2013,10,11,09,54,8.90
2013,10,11,09,55,8.90
2013,10,11,09,56,8.90
2013,10,11,09,57,8.90
2013,10,11,09,58,8.90
2013,10,11,09,59,9.00
2013,10,11,10,00,9.00
2013,10,11,10,01,9.00
2013,10,11,10,02,9.00
2013,10,11,10,03,9.00
2013,10,11,10,04,9.00
2013,10,11,10,05,9.00
2013,10,11,10,06,9.00
2013,10,11,10,07,9.00
2013,10,11,10,08,9.00
2013,10,11,10,09,9.00
2013,10,11,10,10,9.00
2013,10,11,10,11,9.10
2013,10,11,10,12,9.10
2013,10,11,10,13,9.10
2013,10,11,10,14,9.20
2013,10,11,10,15,9.20
2013,10,11,10,16,9.20
2013,10,11,10,17,9.20
2013,10,11,10,18,9.20
2013,10,11,10,19,9.20
2013,10,11,10,20,9.30
2013,10,11,10,21,9.30
2013,10,11,10,22,9.30
2013,10,11,10,23,9.30
2013,10,11,10,24,9.30
2013,10,11,10,25,9.40
2013,10,11,10,26,9.40
2013,10,11,10,27,9.40
2013,10,11,10,28,9.40
2013,10,11,10,29,9.40
2013,10,11,10,30,9.40
2013,10,11,10,31,9.40
2013,10,11,10,32,9.50
2013,10,11,10,33,9.50
2013,10,11,10,34,9.60
2013,10,11,10,35,9.60
2013,10,11,10,36,9.60
2013,10,11,10,37,9.70
2013,10,11,10,38,9.70
2013,10,11,10,39,9.70
2013,10,11,10,40,9.70
2013,10,11,10,41,9.70
2013,10,11,10,42,9.70
2013,10,11,10,43,9.80
2013,10,11,10,44,9.80
2013,10,11,10,45,9.90
2013,10,11,10,46,9.90
2013,10,11,10,47,10.00
2013,10,11,10,48,9.90
2013,10,11,10,49,10.00
2013,10,11,10,50,10.10
2013,10,11,10,51,10.10
2013,10,11,10,52,10.10
2013,10,11,10,53,10.10
2013,10,11,10,54,10.20
2013,10,11,10,55,10.30
2013,10,11,10,56,10.30
2013,10,11,10,57,10.30
2013,10,11,10,58,10.30
2013,10,11,10,59,10.30
2013,10,11,11,00,10.30
2013,10,11,11,01,10.30
2013,10,11,11,02,10.30
2013,10,11,11,03,10.40
2013,10,11,11,04,10.40
2013,10,11,11,05,10.40
2013,10,11,11,06,10.40
2013,10,11,11,07,10.50
2013,10,11,11,08,10.60
2013,10,11,11,09,10.60
2013,10,11,11,10,10.60
2013,10,11,11,11,10.60
2013,10,11,11,12,10.60
2013,10,11,11,13,10.60
2013,10,11,11,14,10.60
2013,10,11,11,15,10.60
2013,10,11,11,16,10.60
2013,10,11,11,17,10.60
2013,10,11,11,18,10.60
2013,10,11,11,19,10.60
2013,10,11,11,20,10.60
2013,10,11,11,21,10.60
2013,10,11,11,22,10.60
2013,10,11,11,23,10.70
2013,10,11,11,24,10.70
2013,10,11,11,25,10.70
2013,10,11,11,26,10.70
2013,10,11,11,27,10.70
2013,10,11,11,28,10.70
2013,10,11,11,29,10.70
2013,10,11,11,30,10.70
2013,10,11,11,31,10.70
2013,10,11,11,32,10.80
2013,10,11,11,33,10.80
2013,10,11,11,34,10.80
2013,10,11,11,35,10.80
2013,10,11,11,36,10.90
2013,10,11,11,37,10.90
2013,10,11,11,38,10.90
2013,10,11,11,39,11.00
2013,10,11,11,40,11.10
2013,10,11,11,41,11.10
2013,10,11,11,42,11.10
2013,10,11,11,43,11.10
2013,10,11,11,44,11.10
2013,10,11,11,45,11.10
2013,10,11,11,46,11.10
2013,10,11,11,47,11.20
2013,10,11,11,48,11.20
2013,10,11,11,49,11.20
2013,10,11,11,50,11.20
2013,10,11,11,51,11.20
2013,10,11,11,52,11.20
2013,10,11,11,53,11.20
2013,10,11,11,54,11.20
2013,10,11,11,55,11.30
2013,10,11,11,56,11.30
2013,10,11,11,57,11.30
2013,10,11,11,58,11.20
2013,10,11,11,59,11.20
2013,10,11,12,00,11.20
2013,10,11,12,01,11.20
2013,10,11,12,02,11.20
2013,10,11,12,03,11.20
2013,10,11,12,04,11.30
2013,10,11,12,05,11.30
2013,10,11,12,06,11.30
2013,10,11,12,07,11.30
2013,10,11,12,08,11.30
2013,10,11,12,09,11.30
2013,10,11,12,10,11.30
2013,10,11,12,11,11.30
2013,10,11,12,12,11.40
2013,10,11,12,13,11.40
2013,10,11,12,14,11.40
2013,10,11,12,15,11.40
2013,10,11,12,16,11.40
2013,10,11,12,17,11.40
2013,10,11,12,18,11.40
2013,10,11,12,19,11.40
2013,10,11,12,20,11.40
2013,10,11,12,21,11.40
2013,10,11,12,22,11.40
2013,10,11,12,23,11.40
2013,10,11,12,24,11.40
2013,10,11,12,25,11.40
2013,10,11,12,26,11.40
2013,10,11,12,27,11.40
2013,10,11,12,28,11.40
2013,10,11,12,29,11.40
2013,10,11,12,30,11.40
2013,10,11,12,31,11.40
2013,10,11,12,32,11.40
2013,10,11,12,33,11.40
2013,10,11,12,34,11.40
2013,10,11,12,35,11.40
2013,10,11,12,36,11.40
2013,10,11,12,37,11.40
2013,10,11,12,38,11.40
2013,10,11,12,39,11.40
2013,10,11,12,40,11.40
2013,10,11,12,41,11.50
2013,10,11,12,42,11.60
2013,10,11,12,43,11.60
2013,10,11,12,44,11.60
2013,10,11,12,45,11.60
2013,10,11,12,46,11.60
2013,10,11,12,47,11.60
2013,10,11,12,48,11.60
2013,10,11,12,49,11.70
2013,10,11,12,50,11.70
2013,10,11,12,51,11.70
2013,10,11,12,52,11.80
2013,10,11,12,53,11.80
2013,10,11,12,54,11.80
2013,10,11,12,55,11.80
2013,10,11,12,56,11.80
2013,10,11,12,57,11.80
2013,10,11,12,58,11.80
2013,10,11,12,59,11.90
2013,10,11,13,00,11.90
2013,10,11,13,01,11.80
2013,10,11,13,02,11.80
2013,10,11,13,03,11.80
2013,10,11,13,04,11.80
2013,10,11,13,05,11.80
2013,10,11,13,06,11.80
2013,10,11,13,07,11.80
2013,10,11,13,08,11.80
2013,10,11,13,09,11.80
2013,10,11,13,10,11.80
2013,10,11,13,11,11.70
2013,10,11,13,12,11.70
2013,10,11,13,13,11.70
2013,10,11,13,14,11.70
2013,10,11,13,15,11.70
2013,10,11,13,16,11.70
2013,10,11,13,17,11.70
2013,10,11,13,18,11.70
2013,10,11,13,19,11.70
2013,10,11,13,20,11.70
2013,10,11,13,21,11.70
2013,10,11,13,22,11.70
2013,10,11,13,23,11.70
2013,10,11,13,24,11.70
2013,10,11,13,25,11.70
2013,10,11,13,26,11.80
2013,10,11,13,27,11.80
2013,10,11,13,28,11.80
2013,10,11,13,29,11.80
2013,10,11,13,30,11.80
2013,10,11,13,31,11.80
2013,10,11,13,32,11.80
2013,10,11,13,33,11.80
2013,10,11,13,34,11.80
2013,10,11,13,35,11.70
2013,10,11,13,36,11.70
2013,10,11,13,37,11.70
2013,10,11,13,38,11.70
2013,10,11,13,39,11.70
2013,10,11,13,40,11.70
2013,10,11,13,41,11.70
2013,10,11,13,42,11.70
2013,10,11,13,43,11.60
2013,10,11,13,44,11.60
2013,10,11,13,45,11.60
2013,10,11,13,46,11.60
2013,10,11,13,47,11.60
2013,10,11,13,48,11.70
2013,10,11,13,49,11.70
2013,10,11,13,50,11.80
2013,10,11,13,51,11.80
2013,10,11,13,52,11.80
2013,10,11,13,53,11.80
2013,10,11,13,54,11.80
2013,10,11,13,55,11.80
2013,10,11,13,56,11.80
2013,10,11,13,57,11.80
2013,10,11,13,58,11.80
2013,10,11,13,59,11.80
2013,10,11,14,00,11.80
2013,10,11,14,01,11.80
2013,10,11,14,02,11.80
2013,10,11,14,03,11.80
2013,10,11,14,04,11.80
2013,10,11,14,05,11.80
2013,10,11,14,06,11.70
2013,10,11,14,07,11.80
2013,10,11,14,08,11.80
2013,10,11,14,09,11.80
2013,10,11,14,10,11.80
2013,10,11,14,11,11.80
2013,10,11,14,12,11.80
2013,10,11,14,13,11.70
2013,10,11,14,14,11.80
2013,10,11,14,15,11.80
2013,10,11,14,16,11.80
2013,10,11,14,17,11.80
2013,10,11,14,18,11.80
2013,10,11,14,19,11.80
2013,10,11,14,20,11.90
2013,10,11,14,21,11.90
2013,10,11,14,22,11.90
2013,10,11,14,23,11.90
2013,10,11,14,24,11.90
2013,10,11,14,25,11.90
2013,10,11,14,26,12.00
2013,10,11,14,27,12.00
2013,10,11,14,28,12.00
2013,10,11,14,29,12.00
2013,10,11,14,30,11.90
2013,10,11,14,31,11.90
2013,10,11,14,32,11.90
2013,10,11,14,33,11.90
2013,10,11,14,34,12.00
2013,10,11,14,35,12.00
2013,10,11,14,36,12.00
2013,10,11,14,37,12.00
2013,10,11,14,38,12.00
2013,10,11,14,39,12.00
2013,10,11,14,40,12.00
2013,10,11,14,41,12.00
2013,10,11,14,42,12.00
2013,10,11,14,43,12.00
2013,10,11,14,44,12.00
2013,10,11,14,45,12.00
2013,10,11,14,46,12.00
2013,10,11,14,47,12.00
2013,10,11,14,48,12.10
2013,10,11,14,49,12.10
2013,10,11,14,50,12.10
2013,10,11,14,51,12.20
2013,10,11,14,52,12.20
2013,10,11,14,53,12.30
2013,10,11,14,54,12.30
2013,10,11,14,55,12.30
2013,10,11,14,56,12.40
2013,10,11,14,57,12.40
2013,10,11,14,58,12.50
2013,10,11,14,59,12.50
2013,10,11,15,00,12.50
2013,10,11,15,01,12.50
2013,10,11,15,02,12.50
2013,10,11,15,03,12.50
2013,10,11,15,04,12.50
2013,10,11,15,05,12.50
2013,10,11,15,06,12.50
2013,10,11,15,07,12.50
2013,10,11,15,08,12.50
2013,10,11,15,09,12.50
2013,10,11,15,10,12.50
2013,10,11,15,11,12.50
2013,10,11,15,12,12.50
2013,10,11,15,13,12.50
2013,10,11,15,14,12.50
2013,10,11,15,15,12.40
2013,10,11,15,16,12.40
2013,10,11,15,17,12.40
2013,10,11,15,18,12.40
2013,10,11,15,19,12.40
2013,10,11,15,20,12.50
2013,10,11,15,21,12.50
2013,10,11,15,22,12.50
2013,10,11,15,23,12.50
2013,10,11,15,24,12.50
2013,10,11,15,25,12.50
2013,10,11,15,26,12.60
2013,10,11,15,27,12.60
2013,10,11,15,28,12.60
2013,10,11,15,29,12.70
2013,10,11,15,30,12.70
2013,10,11,15,31,12.70
2013,10,11,15,32,12.70
2013,10,11,15,33,12.70
2013,10,11,15,34,12.60
2013,10,11,15,35,12.60
2013,10,11,15,36,12.60
2013,10,11,15,37,12.60
2013,10,11,15,38,12.60
2013,10,11,15,39,12.60
2013,10,11,15,40,12.60
2013,10,11,15,41,12.60
2013,10,11,15,42,12.50
2013,10,11,15,43,12.50
2013,10,11,15,44,12.50
2013,10,11,15,45,12.50
2013,10,11,15,46,12.50
2013,10,11,15,47,12.60
2013,10,11,15,48,12.60
2013,10,11,15,49,12.60
2013,10,11,15,50,12.60
2013,10,11,15,51,12.70
2013,10,11,15,52,12.70
2013,10,11,15,53,12.70
2013,10,11,15,54,12.70
2013,10,11,15,55,12.80
2013,10,11,15,56,12.80
2013,10,11,15,57,12.80
2013,10,11,15,58,12.70
2013,10,11,15,59,12.70
2013,10,11,16,00,12.70
2013,10,11,16,01,12.70
2013,10,11,16,02,12.70
2013,10,11,16,03,12.70
2013,10,11,16,04,12.70
2013,10,11,16,05,12.80
2013,10,11,16,06,12.80
2013,10,11,16,07,12.70
2013,10,11,16,08,12.70
2013,10,11,16,09,12.60
2013,10,11,16,10,12.60
2013,10,11,16,11,12.60
2013,10,11,16,12,12.60
2013,10,11,16,13,12.60
2013,10,11,16,14,12.60
2013,10,11,16,15,12.60
2013,10,11,16,16,12.50
2013,10,11,16,17,12.50
2013,10,11,16,18,12.40
2013,10,11,16,19,12.40
2013,10,11,16,20,12.40
2013,10,11,16,21,12.40
2013,10,11,16,22,12.40
2013,10,11,16,23,12.40
2013,10,11,16,24,12.40
2013,10,11,16,25,12.40
2013,10,11,16,26,12.40
2013,10,11,16,27,12.40
2013,10,11,16,28,12.30
2013,10,11,16,29,12.30
2013,10,11,16,30,12.20
2013,10,11,16,31,12.20
2013,10,11,16,32,12.20
2013,10,11,16,33,12.10
2013,10,11,16,34,12.10
2013,10,11,16,35,12.10
2013,10,11,16,36,12.00
2013,10,11,16,37,12.00
2013,10,11,16,38,12.00
2013,10,11,16,39,12.00
2013,10,11,16,40,12.00
2013,10,11,16,41,11.90
2013,10,11,16,42,11.90
2013,10,11,16,43,11.80
2013,10,11,16,44,11.80
2013,10,11,16,45,11.80
2013,10,11,16,46,11.70
2013,10,11,16,47,11.60
2013,10,11,16,48,11.60
2013,10,11,16,49,11.60
2013,10,11,16,50,11.50
2013,10,11,16,51,11.40
2013,10,11,16,52,11.40
2013,10,11,16,53,11.40
2013,10,11,16,54,11.40
2013,10,11,16,55,11.40
2013,10,11,16,56,11.40
2013,10,11,16,57,11.30
2013,10,11,16,58,11.30
2013,10,11,16,59,11.30
2013,10,11,17,00,11.30
2013,10,11,17,01,11.30
2013,10,11,17,02,11.30
2013,10,11,17,03,11.30
2013,10,11,17,04,11.30
2013,10,11,17,05,11.30
2013,10,11,17,06,11.30
2013,10,11,17,07,11.30
2013,10,11,17,08,11.30
2013,10,11,17,09,11.30
2013,10,11,17,10,11.20
2013,10,11,17,11,11.20
2013,10,11,17,12,11.20
2013,10,11,17,13,11.20
2013,10,11,17,14,11.20
2013,10,11,17,15,11.20
2013,10,11,17,16,11.20
2013,10,11,17,17,11.20
2013,10,11,17,18,11.20
2013,10,11,17,19,11.20
2013,10,11,17,20,11.10
2013,10,11,17,21,11.10
2013,10,11,17,22,11.10
2013,10,11,17,23,11.10
2013,10,11,17,24,11.10
2013,10,11,17,25,11.10
2013,10,11,17,26,11.10
2013,10,11,17,27,11.10
2013,10,11,17,28,11.10
2013,10,11,17,29,11.10
2013,10,11,17,30,11.10
2013,10,11,17,31,11.10
2013,10,11,17,32,11.10
2013,10,11,17,33,11.10
2013,10,11,17,34,11.00
2013,10,11,17,35,10.90
2013,10,11,17,36,10.90
2013,10,11,17,37,10.90
2013,10,11,17,38,10.90
2013,10,11,17,39,10.90
2013,10,11,17,40,10.90
2013,10,11,17,41,10.90
2013,10,11,17,42,10.90
2013,10,11,17,43,10.90
2013,10,11,17,44,10.90
2013,10,11,17,45,10.90
2013,10,11,17,46,10.90
2013,10,11,17,47,10.90